This demonstration page uses our WeatherBlox Daily Observations layout. Learn more.

Left ArrowRight Arrow

44.8408, -93.29828

Hourly Observations for September 11, 2018

Temp ( °F °C ) Dew Point ( °F °C ) Humidity (%) Winds ( mph kmh ) Pressure ( in mb ) Visibility ( mi km ) Precip ( " mm )
12:53 am 00:53 Clear 67 19.4 59 15 76 76 S 5 7 29.96 1015 10 16 0.00 0.00
1:53 am 01:53 Clear 65 18.3 59 15 81 81 SE 5 7 29.96 1015 10 16 0.00 0.00
2:53 am 02:53 Clear 68 20 59 15 73 73 SSW 5 7 29.96 1015 10 16 0.00 0.00
3:53 am 03:53 Clear 67 19.4 59 15 76 76 SSW 5 7 29.96 1015 10 16 0.00 0.00
4:53 am 04:53 Clear 63 17.2 59 15 87 87 SE 5 7 29.96 1015 10 16 0.00 0.00
5:53 am 05:53 Clear 62 16.7 59 15 90 90 SSE 7 11 29.96 1015 10 16 0.00 0.00
6:53 am 06:53 Sunny 62 16.7 59 15 90 90 SE 5 7 29.97 1015 10 16 0.00 0.00
7:53 am 07:53 Sunny 64 17.8 60 15.6 87 87 SE 5 7 29.99 1016 10 16 0.00 0.00
8:53 am 08:53 Sunny 69 20.6 61 16.1 76 76 S 6 9 29.98 1015 10 16 0.00 0.00
9:53 am 09:53 Sunny 72 22.2 62 16.7 71 71 S 10 17 29.99 1016 10 16 0.00 0.00
10:53 am 10:53 Sunny 75 23.9 62 16.7 64 64 S 16 26 29.99 1016 10 16 0.00 0.00
11:53 am 11:53 Mostly Sunny 77 25 62 16.7 60 60 SSW 17 28 29.97 1015 10 16 0.00 0.00
12:53 pm 12:53 Mostly Sunny 79 26.1 61 16.1 54 54 S 15 24 29.94 1014 10 16 0.00 0.00
1:53 pm 13:53 Mostly Sunny 81 27.2 61 16.1 51 51 SSE 21 33 29.92 1013 10 16 0.00 0.00
2:53 pm 14:53 Mostly Sunny 83 28.3 59 15 44 44 S 23 37 29.90 1013 10 16 0.00 0.00
3:53 pm 15:53 Partly Cloudy 83 28.3 60 15.6 46 46 S 18 30 29.88 1012 10 16 0.00 0.00
4:53 pm 16:53 Mostly Cloudy 83 28.3 59 15 44 44 S 22 35 29.88 1012 10 16 0.00 0.00
5:53 pm 17:53 Mostly Cloudy 82 27.8 59 15 46 46 S 20 31 29.88 1012 10 16 0.00 0.00
6:53 pm 18:53 Mostly Cloudy 80 26.7 59 15 49 49 S 15 24 29.87 1012 10 16 0.00 0.00
7:53 pm 19:53 Mostly Cloudy 78 25.6 59 15 52 52 S 15 24 29.87 1012 10 16 0.00 0.00
8:53 pm 20:53 Partly Cloudy 76 24.4 59 15 56 56 S 12 19 29.88 1012 10 16 0.00 0.00
9:53 pm 21:53 Mostly Clear 74 23.3 60 15.6 62 62 S 12 19 29.89 1012 10 16 0.00 0.00
10:53 pm 22:53 Mostly Clear 75 23.9 61 16.1 62 62 S 9 15 29.90 1013 10 16 0.00 0.00
11:53 pm 23:53 Clear 73 22.8 62 16.7 69 69 S 9 15 29.92 1013 10 16 0.00 0.00

Powered by AerisWeather